FW8607 Weather Reports


time (UTC)temp
C
wind
direction
speed
KPH
gust
KPH
rain 1hr
cm
rain 24hr
cm
rain mn
cm
humidity
%
barometer
mb
20260507103113 12 0.0 0.0 0.00 0.00 0.00 91 1015.3
20260507100113 12 0.0 0.0 0.00 0.00 0.00 90 1015.5
20260507093114 12 0.0 0.0 0.00 0.00 0.00 89 1016.0
20260507090135 12 0.0 0.0 0.00 0.00 0.00 88 1016.1
20260507083113 12 113 3.2 6.4 0.00 0.00 0.00 88 1016.4
20260507080115 13 113 1.6 4.8 0.00 0.00 0.00 87 1016.7
20260507073113 13 0.0 8.0 0.00 0.00 0.00 86 1016.5
20260507070114 13 0.0 0.0 0.00 0.00 0.00 85 1016.5
20260507063113 13 0.0 0.0 0.00 0.00 0.00 85 1016.8
20260507060114 14 0.0 0.0 0.00 0.00 0.00 85 1016.8
20260507053114 14 0.0 0.0 0.00 0.00 0.00 83 1016.8
20260507050113 15 270 1.6 4.8 0.00 0.00 0.00 81 1016.6
20260507043114 15 270 3.2 6.4 0.00 0.00 0.00 79 1016.6
20260507040112 15 270 6.4 12.9 0.00 0.00 0.00 78 1016.4
20260507033133 16 270 8.0 16.1 0.00 0.00 0.00 76 1016.0
20260507030233 16 270 11.3 17.7 0.00 0.00 0.00 72 1015.8
20260507023113 17 270 11.3 19.3 0.00 0.00 0.00 69 1015.7
20260507020112 18 270 12.9 19.3 0.00 0.00 0.00 67 1015.3
20260507013112 19 270 12.9 19.3 0.00 0.00 0.00 66 1015.1
20260507010112 19 270 14.5 25.7 0.00 0.00 0.00 65 1015.2
20260507003112 20 293 16.1 27.4 0.00 0.00 0.00 65 1015.1
20260507000133 20 293 14.5 27.4 0.00 0.00 0.00 64 1014.9
20260506233112 21 270 14.5 24.1 0.00 0.00 0.00 62 1014.9
20260506230112 21 270 14.5 25.7 0.00 0.00 0.00 61 1014.9
20260506223112 21 270 17.7 30.6 0.00 0.00 0.00 63 1015.1
20260506220112 21 248 17.7 32.2 0.00 0.00 0.00 63 1015.4
20260506213112 21 270 17.7 30.6 0.00 0.00 0.00 62 1015.8
20260506210111 21 270 16.1 29.0 0.00 0.00 0.00 62 1015.7
20260506203111 21 248 12.9 27.4 0.00 0.00 0.00 59 1016.0
20260506200132 21 270 11.3 24.1 0.00 0.00 0.00 58 1016.3
20260506193113 20 338 11.3 25.7 0.00 0.00 0.00 59 1016.5
20260506190131 19 270 11.3 30.6 0.00 0.00 0.00 62 1016.9
20260506183111 18 293 11.3 22.5 0.00 0.00 0.00 65 1017.1
20260506180112 17 293 12.9 25.7 0.00 0.00 0.00 67 1017.3
20260506173111 16 293 12.9 25.7 0.00 0.00 0.00 68 1017.6
20260506170111 16 293 9.7 19.3 0.00 0.00 0.00 71 1017.5
20260506163112 15 293 9.7 19.3 0.00 0.00 0.00 74 1017.4
20260506160113 14 338 8.0 17.7 0.00 0.00 0.00 76 1017.5
20260506153114 14 315 4.8 14.5 0.00 0.00 0.00 77 1017.6
20260506150113 13 68 1.6 6.4 0.00 0.00 0.00 85 1017.6
20260506143113 11 68 4.8 6.4 0.00 0.13 0.00 89 1017.5
20260506140133 10 158 4.8 8.0 0.00 0.13 0.00 90 1017.3
20260506133114 10 158 1.6 4.8 0.00 0.13 0.00 90 1017.1
20260506130114 10 158 1.6 8.0 0.00 0.13 0.00 89 1016.8
20260506123113 10 135 3.2 9.7 0.00 0.41 0.00 89 1016.5
20260506120113 10 135 3.2 11.3 0.00 0.41 0.00 89 1016.3
20260506113114 10 135 4.8 9.7 0.00 0.41 0.00 89 1016.5
20260506110114 10 135 4.8 8.0 0.00 0.41 0.00 89 1016.3